sat.trackr.live / text

‹ back to catalog

SZ-20 MODULE

NORAD 67481 · 2025-082C

PAYLOAD ACTIVE UNKNOWN

§ Identity

Operator
Country
PRC
Launch date
2025-04-24
Launch site
JSC
Launch vehicle
Mass (kg)
RCS (m²)

External: N2YO · Heavens-Above · Gunter

§ Orbital elements

Epoch: 2026-09-20T21:58:55.000704Z

Period
91.49 min
Inclination
41.4749°
Eccentricity
0.0014740
Mean motion
15.73940786 rev/d
Perigee alt
337.7 km
Apogee alt
357.6 km
Semi-major
6,725.8 km
B*
1.7524e-4
RAAN
84.4790°
Arg perigee
332.8960°
Mean anomaly
27.1113°
Rev number
30,829

§ Raw data

SZ-20 MODULE1 67481U 25082C   26263.91591436  .00025529  00000+0  17524-3 0  99942 67481  41.4749  84.4790 0014740 332.8960  27.1113 15.73940786308293

JSON: /api/v1/satellites/67481 · /tle

For live sub-satellite position, see the globe view (requires WebGL).

§ Visibility from observer

Set your observer location to see the next 7 days of passes ≥ 10°. The values pass through the URL so the page stays shareable.

No JS? Fill the form by hand. The geolocation button needs JavaScript.